KLM24B EHAM-CYVR

Flight info

Callsign KLM24B
Flight time N/A
Altitude 36000
Route BERGI M90 LONAM DCT AKIVO DCT 60N010W/M084F360 64N020W/M083F380 67N030W 69N040W 70N050W/N0490F380 DCT YCY DCT YUX/N0488F400 DCT UX DCT VIPDI DCT BK DCT 63N100W DCT IKLIX Q915 SAVEL DCT YZU DCT BOOTH VITEV5
Aircraft B772/H-SDE2E3FGHIJ5LORVWXY/LB1D1

Departure

Time N/A
Airport Amsterdam Airport Schiphol (EHAM)

Arrival

Time 2026-05-03 21:17
Airport Vancouver International Airport (CYVR)
Time Latitude Longitude Altitude Speed Heading
2026-05-03 20:15 54.77095 -114.75706 39997 ft 514 kts 231°
2026-05-03 20:15 54.72027 -114.84317 40008 ft 514 kts 231°
2026-05-03 20:16 54.66920 -114.92958 39994 ft 514 kts 231°
2026-05-03 20:16 54.61805 -115.01574 39954 ft 514 kts 231°
2026-05-03 20:17 54.56695 -115.10161 40000 ft 513 kts 231°
2026-05-03 20:17 54.51576 -115.18724 40006 ft 513 kts 231°
2026-05-03 20:18 54.46451 -115.27274 40002 ft 513 kts 231°
2026-05-03 20:18 54.41321 -115.35803 40008 ft 514 kts 231°
2026-05-03 20:19 54.36172 -115.44321 39984 ft 513 kts 231°
2026-05-03 20:19 54.31037 -115.52790 40003 ft 512 kts 231°
2026-05-03 20:20 54.25899 -115.61232 39996 ft 512 kts 231°
2026-05-03 20:20 54.20755 -115.69654 39993 ft 512 kts 231°
2026-05-03 20:21 54.15615 -115.78044 39981 ft 510 kts 230°
2026-05-03 20:21 54.10420 -115.86319 40006 ft 511 kts 229°
2026-05-03 20:22 54.05140 -115.94440 40001 ft 511 kts 229°
2026-05-03 20:22 53.99863 -116.02523 40013 ft 510 kts 229°
2026-05-03 20:23 53.94588 -116.10612 39979 ft 511 kts 229°
2026-05-03 20:23 53.89321 -116.18685 39997 ft 510 kts 229°
2026-05-03 20:24 53.84054 -116.26735 39999 ft 510 kts 229°
2026-05-03 20:24 53.78779 -116.34770 39999 ft 510 kts 229°
2026-05-03 20:25 53.73499 -116.42774 39992 ft 510 kts 229°
2026-05-03 20:25 53.68209 -116.50767 39992 ft 510 kts 229°
2026-05-03 20:26 53.62911 -116.58745 39986 ft 511 kts 229°
2026-05-03 20:26 53.57607 -116.66706 39995 ft 511 kts 228°
2026-05-03 20:27 53.52295 -116.74650 39983 ft 511 kts 228°
2026-05-03 20:27 53.47010 -116.82527 39995 ft 511 kts 228°
2026-05-03 20:28 53.41691 -116.90428 40004 ft 511 kts 228°
2026-05-03 20:28 53.36363 -116.98314 40015 ft 511 kts 228°
2026-05-03 20:29 53.31022 -117.06190 40019 ft 512 kts 228°
2026-05-03 20:29 53.25676 -117.14043 39987 ft 512 kts 228°
2026-05-03 20:30 53.20328 -117.21875 40027 ft 512 kts 227°
2026-05-03 20:30 53.14976 -117.29689 40032 ft 511 kts 227°
2026-05-03 20:31 53.09605 -117.37457 40036 ft 511 kts 227°
2026-05-03 20:31 53.04241 -117.45252 40005 ft 513 kts 227°
2026-05-03 20:32 52.98880 -117.53037 40031 ft 511 kts 227°
2026-05-03 20:32 52.93487 -117.60773 40048 ft 513 kts 227°
2026-05-03 20:33 52.88078 -117.68547 40043 ft 516 kts 227°
2026-05-03 20:33 52.82652 -117.76315 40038 ft 515 kts 227°
2026-05-03 20:34 52.77276 -117.83953 40045 ft 513 kts 227°
2026-05-03 20:34 52.71862 -117.91649 40038 ft 514 kts 227°
2026-05-03 20:35 52.66422 -117.99350 40039 ft 516 kts 226°
2026-05-03 20:35 52.60971 -118.07025 40044 ft 514 kts 227°
2026-05-03 20:36 52.55544 -118.14657 40058 ft 515 kts 226°
2026-05-03 20:36 52.50077 -118.22322 40074 ft 518 kts 226°
2026-05-03 20:37 52.45513 -118.28713 40049 ft 521 kts 226°
2026-05-03 20:37 52.39989 -118.36387 40052 ft 520 kts 226°
2026-05-03 20:38 52.34447 -118.44045 40032 ft 522 kts 226°
2026-05-03 20:38 52.28906 -118.51724 40046 ft 523 kts 226°
2026-05-03 20:39 52.23349 -118.59393 40066 ft 524 kts 226°
2026-05-03 20:39 52.17771 -118.67063 40061 ft 525 kts 225°
2026-05-03 20:40 52.12188 -118.74695 40046 ft 524 kts 226°
2026-05-03 20:40 52.06600 -118.82331 40079 ft 524 kts 225°
2026-05-03 20:41 52.00992 -118.89938 40089 ft 524 kts 225°
2026-05-03 20:41 51.95433 -118.97464 40083 ft 524 kts 225°
2026-05-03 20:42 51.89830 -119.05041 40040 ft 524 kts 225°
2026-05-03 20:42 51.84234 -119.12582 40062 ft 524 kts 225°
2026-05-03 20:43 51.78626 -119.20101 40046 ft 524 kts 225°
2026-05-03 20:43 51.73009 -119.27607 40056 ft 525 kts 225°
2026-05-03 20:44 51.67377 -119.35115 40027 ft 525 kts 225°
2026-05-03 20:44 51.61727 -119.42618 40042 ft 528 kts 225°
2026-05-03 20:45 51.56056 -119.50124 40048 ft 530 kts 225°
2026-05-03 20:45 51.50331 -119.57679 40026 ft 533 kts 225°
2026-05-03 20:46 51.44601 -119.65209 40035 ft 530 kts 225°
2026-05-03 20:46 51.38917 -119.72673 40081 ft 528 kts 224°
2026-05-03 20:47 51.33215 -119.80082 40064 ft 528 kts 224°
2026-05-03 20:47 51.27525 -119.87540 40037 ft 529 kts 224°
2026-05-03 20:48 51.21844 -119.94981 40016 ft 529 kts 224°
2026-05-03 20:48 51.16140 -120.02327 40016 ft 532 kts 224°
2026-05-03 20:49 51.10360 -120.09721 40027 ft 534 kts 224°
2026-05-03 20:49 51.04571 -120.17141 40023 ft 535 kts 224°
2026-05-03 20:50 50.98771 -120.24557 40013 ft 536 kts 224°
2026-05-03 20:50 50.92962 -120.31984 40017 ft 537 kts 223°
2026-05-03 20:51 50.87133 -120.39401 40005 ft 538 kts 223°
2026-05-03 20:51 50.81295 -120.46797 39970 ft 537 kts 223°
2026-05-03 20:52 50.75465 -120.54165 40005 ft 536 kts 223°
2026-05-03 20:52 50.69634 -120.61508 40012 ft 536 kts 223°
2026-05-03 20:52 50.66740 -120.65138 39893 ft 522 kts 223°
2026-05-03 20:53 50.63931 -120.68646 39057 ft 514 kts 223°
2026-05-03 20:53 50.61092 -120.72207 38052 ft 527 kts 223°
2026-05-03 20:53 50.58219 -120.75808 37366 ft 529 kts 223°
2026-05-03 20:53 50.55337 -120.79414 36800 ft 529 kts 223°
2026-05-03 20:54 50.52459 -120.83002 36360 ft 526 kts 222°
2026-05-03 20:54 50.46745 -120.90103 35259 ft 523 kts 222°
2026-05-03 20:54 50.43927 -120.93600 34596 ft 525 kts 222°
2026-05-03 20:55 50.41060 -120.97151 33924 ft 525 kts 222°
2026-05-03 20:55 50.38197 -121.00691 33165 ft 524 kts 222°
2026-05-03 20:55 50.35340 -121.04217 32399 ft 522 kts 221°
2026-05-03 20:55 50.32487 -121.07734 31613 ft 521 kts 221°
2026-05-03 20:56 50.29652 -121.11223 30949 ft 516 kts 221°
2026-05-03 20:56 50.26843 -121.14672 30301 ft 510 kts 220°
2026-05-03 20:56 50.24073 -121.18068 29707 ft 503 kts 220°
2026-05-03 20:56 50.21343 -121.21410 29098 ft 496 kts 220°
2026-05-03 20:57 50.18642 -121.24711 28468 ft 490 kts 220°
2026-05-03 20:57 50.15970 -121.27972 27808 ft 486 kts 220°
2026-05-03 20:57 50.13317 -121.31208 27143 ft 482 kts 220°
2026-05-03 20:57 50.10684 -121.34418 26509 ft 479 kts 220°
2026-05-03 20:58 50.08067 -121.37604 26176 ft 477 kts 220°
2026-05-03 20:58 50.05456 -121.40778 26021 ft 475 kts 220°
2026-05-03 20:58 50.02859 -121.43929 26010 ft 473 kts 219°
2026-05-03 20:58 50.00257 -121.47081 25996 ft 475 kts 219°
2026-05-03 20:59 49.97680 -121.50196 25939 ft 463 kts 219°
2026-05-03 20:59 49.95701 -121.52579 25610 ft 431 kts 219°
2026-05-03 20:59 49.93380 -121.55372 24986 ft 419 kts 219°
2026-05-03 20:59 49.91091 -121.58128 24591 ft 413 kts 219°
2026-05-03 21:00 49.88836 -121.60841 24321 ft 406 kts 219°
2026-05-03 21:00 49.87365 -121.62608 24125 ft 402 kts 219°
2026-05-03 21:00 49.84430 -121.66137 23599 ft 398 kts 219°
2026-05-03 21:00 49.82248 -121.68763 23088 ft 396 kts 219°
2026-05-03 21:01 49.80078 -121.71366 22641 ft 392 kts 219°
2026-05-03 21:01 49.77929 -121.73940 22208 ft 389 kts 219°
2026-05-03 21:01 49.75794 -121.76489 21755 ft 387 kts 219°
2026-05-03 21:01 49.73710 -121.78973 21352 ft 384 kts 219°
2026-05-03 21:02 49.71594 -121.81495 20920 ft 381 kts 219°
2026-05-03 21:02 49.69502 -121.83992 20434 ft 380 kts 219°
2026-05-03 21:02 49.67409 -121.86484 19979 ft 379 kts 219°
2026-05-03 21:02 49.65330 -121.88950 19582 ft 376 kts 219°
2026-05-03 21:03 49.63268 -121.91402 19190 ft 372 kts 219°
2026-05-03 21:03 49.61223 -121.93828 18766 ft 370 kts 218°
2026-05-03 21:03 49.59184 -121.96241 18395 ft 368 kts 219°
2026-05-03 21:03 49.57166 -121.98632 18000 ft 365 kts 219°
2026-05-03 21:04 49.55158 -122.01007 17572 ft 362 kts 218°
2026-05-03 21:04 49.53169 -122.03357 17124 ft 358 kts 219°
2026-05-03 21:04 49.51431 -122.06014 16536 ft 353 kts 237°
2026-05-03 21:04 49.50206 -122.09279 16007 ft 352 kts 243°
2026-05-03 21:05 49.49003 -122.12542 15615 ft 350 kts 240°
2026-05-03 21:05 49.47743 -122.15730 15215 ft 348 kts 239°
2026-05-03 21:05 49.46478 -122.18882 14858 ft 345 kts 239°
2026-05-03 21:05 49.45229 -122.22019 14427 ft 343 kts 239°
2026-05-03 21:06 49.43991 -122.25136 14039 ft 341 kts 239°
2026-05-03 21:06 49.42760 -122.28239 13584 ft 340 kts 239°
2026-05-03 21:06 49.41533 -122.31326 13164 ft 337 kts 239°
2026-05-03 21:06 49.40362 -122.34402 12584 ft 329 kts 246°
2026-05-03 21:07 49.39824 -122.37775 11928 ft 324 kts 266°
2026-05-03 21:07 49.39636 -122.41245 11284 ft 328 kts 265°
2026-05-03 21:07 49.39391 -122.44724 10871 ft 327 kts 264°
2026-05-03 21:07 49.39128 -122.48158 10545 ft 322 kts 264°
2026-05-03 21:08 49.38762 -122.51508 10037 ft 317 kts 253°
2026-05-03 21:08 49.37652 -122.54421 9715 ft 318 kts 226°
2026-05-03 21:08 49.35887 -122.56336 9562 ft 307 kts 203°
2026-05-03 21:08 49.33927 -122.57358 9297 ft 288 kts 196°
2026-05-03 21:09 49.32036 -122.58218 8785 ft 280 kts 196°
2026-05-03 21:09 49.30177 -122.59056 8141 ft 281 kts 195°
2026-05-03 21:09 49.28261 -122.59903 7560 ft 290 kts 197°
2026-05-03 21:09 49.26451 -122.61258 6932 ft 295 kts 219°
2026-05-03 21:10 49.25135 -122.63669 6354 ft 292 kts 239°
2026-05-03 21:10 49.24183 -122.66321 5801 ft 277 kts 243°
2026-05-03 21:10 49.23348 -122.68889 5248 ft 263 kts 244°
2026-05-03 21:10 49.22564 -122.71378 4629 ft 256 kts 244°
2026-05-03 21:11 49.21804 -122.73802 4015 ft 249 kts 244°
2026-05-03 21:11 49.21062 -122.76170 3413 ft 244 kts 244°
2026-05-03 21:11 49.20342 -122.78437 3167 ft 236 kts 244°
2026-05-03 21:11 49.19641 -122.80642 2987 ft 222 kts 244°
2026-05-03 21:12 49.18988 -122.82688 2979 ft 207 kts 244°
2026-05-03 21:12 49.18370 -122.84623 2962 ft 201 kts 244°
2026-05-03 21:12 49.17760 -122.86525 3014 ft 200 kts 244°
2026-05-03 21:12 49.17233 -122.88486 2970 ft 199 kts 261°
2026-05-03 21:13 49.17267 -122.90513 2989 ft 190 kts 275°
2026-05-03 21:13 49.17408 -122.92474 2968 ft 181 kts 278°
2026-05-03 21:13 49.17599 -122.94392 2788 ft 185 kts 279°
2026-05-03 21:13 49.17815 -122.96311 2560 ft 182 kts 280°
2026-05-03 21:14 49.18028 -122.98199 2324 ft 178 kts 280°
2026-05-03 21:14 49.18233 -122.99998 2073 ft 168 kts 279°
2026-05-03 21:14 49.18434 -123.01763 1875 ft 170 kts 279°
2026-05-03 21:14 49.18637 -123.03549 1686 ft 171 kts 279°
2026-05-03 21:15 49.18839 -123.05325 1438 ft 165 kts 279°
2026-05-03 21:15 49.19025 -123.06978 1203 ft 152 kts 278°
2026-05-03 21:15 49.19188 -123.08539 967 ft 143 kts 278°
2026-05-03 21:15 49.19368 -123.09918 819 ft 125 kts 279°
2026-05-03 21:16 49.19508 -123.11168 673 ft 115 kts 278°
2026-05-03 21:16 49.19647 -123.12430 559 ft 125 kts 280°
2026-05-03 21:16 49.19810 -123.13789 410 ft 134 kts 281°
2026-05-03 21:16 49.19964 -123.15196 210 ft 134 kts 281°
2026-05-03 21:17 49.20107 -123.16530 46 ft 118 kts 281°
2026-05-03 21:17 49.20195 -123.17292 27 ft 102 kts 280°
2026-05-03 21:17 49.20303 -123.18250 29 ft 34 kts 274°
2026-05-03 21:17 49.20280 -123.18549 29 ft 19 kts 253°
2026-05-03 21:18 49.20246 -123.18707 28 ft 12 kts 250°
2026-05-03 21:18 49.20219 -123.18810 27 ft 9 kts 248°
2026-05-03 21:18 49.20214 -123.18829 27 ft 0 kts 247°
2026-05-03 21:18 49.20202 -123.18851 27 ft 6 kts 220°
2026-05-03 21:19 49.20168 -123.18836 27 ft 6 kts 130°
2026-05-03 21:19 49.20143 -123.18699 27 ft 16 kts 101°
2026-05-03 21:19 49.20133 -123.18610 27 ft 6 kts 99°
2026-05-03 21:19 49.20125 -123.18547 27 ft 6 kts 107°
2026-05-03 21:20 49.20092 -123.18514 27 ft 6 kts 181°
2026-05-03 21:20 49.20046 -123.18523 27 ft 7 kts 188°
2026-05-03 21:20 49.19997 -123.18534 27 ft 8 kts 188°
2026-05-03 21:20 49.19939 -123.18547 27 ft 9 kts 188°
2026-05-03 21:21 49.19874 -123.18562 27 ft 10 kts 189°
2026-05-03 21:21 49.19808 -123.18560 27 ft 10 kts 156°
2026-05-03 21:21 49.19771 -123.18479 27 ft 10 kts 103°
2026-05-03 21:21 49.19760 -123.18373 27 ft 10 kts 98°
2026-05-03 21:22 49.19748 -123.18269 27 ft 10 kts 102°
2026-05-03 21:22 49.19722 -123.18170 26 ft 10 kts 123°
2026-05-03 21:22 49.19674 -123.18093 27 ft 10 kts 145°
2026-05-03 21:22 49.19613 -123.18038 27 ft 10 kts 159°
2026-05-03 21:23 49.19582 -123.18021 27 ft 2 kts 159°
2026-05-03 21:23 49.19572 -123.18015 27 ft 0 kts 159°